Regional Weather Roundup
Issued by NWS Charleston, SC

Current Version | Previous Version | Text Only | Print | Product List | Glossary Off
Versions: 1 2 3 4 5 6 7 8 9 10 11 12 13 14 15 16 17 18 19 20 21 22 23 24 25 26 27 28 29 30 31 32 33 34 35 36 37 38 39 40 41 42 43 44 45 46 47 48 49 50

000
ASUS42 KCHS 222212
RWRCHS

REGIONAL WEATHER ROUNDUP
NATIONAL WEATHER SERVICE CHARLESTON SC
600 PM EDT FRI MAY 22 2015

NOTE: "FAIR" INDICATES FEW OR NO CLOUDS BELOW 12,000 FEET WITH NO
SIGNIFICANT WEATHER AND/OR OBSTRUCTIONS TO VISIBILITY.

NOT ALL STATIONS ARE QUALITY CONTROLLED BY THE NATIONAL
WEATHER SERVICE. USE DATA WITH CAUTION...ESPECIALLY
DEWPOINT OBSERVATIONS.

SCZ027-030-031-034>040-042>050-222300-
...SOUTHEAST SOUTH CAROLINA...

CITY           SKY/WX    TMP DP  RH WIND       PRES   REMARKS
N CHARLESTON   MOSUNNY   74  58  57 S9        30.17R
WATERFRONT PAR   N/A     75  62  64 E10       30.14F
MOUNT PLEASANT FAIR      73  61  64 E8        30.17S
JOHNS ISLAND   CLEAR     73  61  64 E8        30.18R
PINOPOLIS        N/A     79  54  41 VRB3      30.10R
MONCKS CORNER  FAIR      79  52  38 CALM      30.17S
SUMMERVILLE    FAIR      77  55  47 CALM      30.18S
BEAUFORT MCAS  PTSUNNY   76  57  51 E5        30.17R
BEAUFORT ARPT  CLOUDY    75  63  64 E8        30.16S
HILTON HEAD IS MOSUNNY   75  63  64 NE6       30.18S
WALTERBORO     PTCLDY    75  52  43 E3        30.18S
ALLENDALE      FAIR      79  54  41 VRB6      30.16S

...SOUTHERN MIDLANDS AND PEE DEE...

CITY           SKY/WX    TMP DP  RH WIND       PRES   REMARKS
GEORGETOWN     NOT AVBL
KINGSTREE      NOT AVBL
ORANGEBURG     SUNNY     78  50  37 VRB3      30.17S
BARNWELL       FAIR      81  50  34 NE9       30.17S
AIKEN          FAIR      77  45  31 N6        30.22R
MANNING        FAIR      77  -9   3 N7        30.17S
COLUMBIA       MOSUNNY   80  47  31 E5        30.17R
SUMTER         SUNNY     79  48  33 W8        30.16R
FLORENCE       SUNNY     78  49  35 N8        30.17S
MYRTLE BEACH   MOSUNNY   73  57  56 SE9       30.20R
N MYRTLE BEACH MOSUNNY   71  57  61 S5        30.18R

$$

GAZ063-065-086>088-099>101-113>116-118-119-134>141-150-222300-
...SOUTHEAST GEORGIA...

CITY           SKY/WX    TMP DP  RH WIND       PRES   REMARKS
SAVANNAH ARPT  PTSUNNY   76  58  53 SE8       30.15F
HUNTER AAF     MOSUNNY   76  62  61 E9        30.14S
FORT STEWART   SUNNY     79  61  53 E10       30.13S
STATESBORO     SUNNY     81  61  51 N6        30.15S
SYLVANIA       PTCLDY    82  57  43 E6        30.17S
CLAXTON        FAIR      81  61  50 NE3       30.14S

...CSRA...CENTRAL AND FAR SOUTHEAST GEORGIA...

CITY           SKY/WX    TMP DP  RH WIND       PRES   REMARKS
THOMSON        SUNNY     79  55  43 CALM      30.23S
AUGUSTA-BUSH   SUNNY     80  49  33 CALM      30.16S
AUGUSTA-DANIEL SUNNY     80  50  34 N9        30.18R
SWAINSBORO     FAIR      82  55  39 N3        30.17R
VIDALIA        MOSUNNY   82  55  39 NE6       30.14S
EASTMAN        FAIR      84  56  38 NE7       30.17R
HAZLEHURST     FAIR      83  55  37 CALM      30.12F
ALMA           SUNNY     83  52  34 NW7       30.12F
WAYCROSS       SUNNY     84  54  35 CALM      30.12S
JESUP          FAIR      81  66  61 E7        30.14R
BAXLEY         FAIR      86  52  30 N5        30.12S
BRUNSWICK      PTSUNNY   75  63  64 NE12      30.16R
SAINT SIMONS   NOT AVBL

$$

SCZ027-028-034-036>038-045-046-048>050-GAZ119-141-222300-
...LAKE AND SUPPLEMENTAL COASTAL OBSERVATIONS...

STATION/POSITION TIME  TEMP    WIND        PRES    WAVE   SWELL
                       AIR SEA DIR/SP/G            HT/PER HT/PER/DIR
                 (UTC) (F)     (DEG/KT/KT) (MB)    (FT/S) (FT/S/D)
UPR LAKE MARION  NOT AVBL
WINYAH BAY       2045   69     100/  8     1021.0
LAKE MURRAY      2100   76     190/  5/ 10 1021.3S
ACE BASIN NERRS  NOT AVBL
FORT PULASKI     2100   72 79   70/ 15/ 19 1021.9F
SAPELO ISLAND    2100   76      60/ 12     1021.0S

$$

ANZ835-935-AMZ111-154-330-350-352-354-370-450-454-472-222300-
...C-MAN AND BUOY OBSERVATIONS...

STATION/POSITION TIME  TEMP    WIND        PRES    WAVE   SWELL
                       AIR SEA DIR/SP/G            HT/PER HT/PER/DIR
                 (UTC) (F)     (DEG/KT/KT) (MB)    (FT/S) (FT/S/D)
BUOY 41004       2150   70 76   40/ 16/ 17 1021.0F   5/ 6   2/12
BUOY 41008       2150   72 76   60/ 17/ 21 1021.0F   5/ 6   2/ 80/13
FOLLY BEACH CMAN 2200   71      90/ 11/ 12 1022.0R
CAPERS NEARSHORE NOT AVBL
FRIPP NEARSHORE  2100   73      90/ 14/ 16 1021.2S


STATION/POSITION TIME  TEMP    WIND        PRES    WAVE   SWELL
                       AIR SEA DIR/SP/G            HT/PER HT/PER/DIR
                 (UTC) (F)     (DEG/KT/KT) (MB)    (FT/S) (FT/S/D)
5E ST. MARYS GA  2121      78                N/A     3/ 4
FRYING PAN BUOY  2150   69 74   70/ 10/ 14 1022.5F   3/ 5   2/ 60/ 6
BUOY 41025       2150   66 77   20/  8/ 10 1022.4R   3/ 8   3/ 50/ 8
CAPE LOOKOUT NC  2200   67     110/  7/  8 1021.9R
BUOY 41002       2150   73 75   60/ 16/ 19 1020.2R   5/ 6   2/ 10/ 9
BUOY 41010       2120   81 81  330/  8/ 10 1019.0R
ST AUGUSTINE FL  2200   74 77   20/ 15/ 17 1020.6S


$$



USA.gov is the U.S. government's official web portal to all federal, state and local government web resources and services.